Regional Weather Roundup
Issued by NWS State College, PA

Home | Current Version | Previous Version | Text Only | Print | Product List | Glossary On
Versions: 1 2 3 4 5 6 7 8 9 10 11 12 13 14 15 16 17 18 19 20 21 22 23 24 25 26 27 28 29 30 31 32 33 34 35 36 37 38 39 40 41 42 43 44 45 46 47 48 49 50
000
ASUS41 KCTP 241810
RWRCTP

REGIONAL WEATHER ROUNDUP
NATIONAL WEATHER SERVICE STATE COLLEGE PA
100 PM EST MON NOV 24 2014

Note: "fair" indicates few or no clouds below 12,000 feet with no
significant weather and/or obstructions to visibility.

* = STATION THAT DOES NOT REPORT PRECIPITATION /E.G. RAIN...SNOW...ETC/
    THUNDER OR FOG.

PAZ002>004-007>009-013>016-020>023-029>032-241900-
WESTERN PENNSYLVANIA

CITY           SKY/WX    TMP DP  RH WIND       PRES   REMARKS
ERIE           CLOUDY    65  45  48 S29G46    29.23F
MEADVILLE      CLOUDY    63  43  48 SW23G36   29.30F
FRANKLIN*      CLOUDY    63  45  51 S21G39    29.37S
NEW CASTLE       N/A     66  43  43 SW22G40   29.36R
BEAVER COUNTY  CLOUDY    64  45  48 SW28G45   29.38S
BUTLER*          N/A    N/A N/A N/A MISG        N/A
PITTSBURGH INT PTSUNNY   68  42  38 SW40G52   29.39S
PITTSBURGH     CLOUDY    67  38  34 SW35G47   29.42R
INDIANA*       CLOUDY    68  43  40 W23G33    29.47S
LATROBE        PTSUNNY   68  41  37 MISG      29.46S
WASHINGTON CO* PTSUNNY   66  46  48 SW18G41   29.46R
$$

PAZ004>006-010>012-017>019-024>028-033>037-041-042-045-046-049>053-241900-
CENTRAL PENNSYLVANIA

CITY           SKY/WX    TMP DP  RH WIND       PRES   REMARKS
BRADFORD       CLOUDY    62  43  49 SW20G35   29.38F
DUBOIS         CLOUDY    66  44  45 S15G29    29.40F
CLEARFIELD     CLOUDY    64  49  57 S14G29    29.42F
JOHNSTOWN      PTSUNNY   65  38  36 SW28G35   29.48S
ALTOONA        SUNNY     66  51  58 S20G25    29.49S
STATE COLLEGE  PTSUNNY   66  52  59 S15G25    29.47F
WILLIAMSPORT   MOSUNNY   67  52  58 S8G31     29.46F
SELINSGROVE    MOSUNNY   70  54  56 S18G28    29.49F
FT INDIANTOWN  PTSUNNY   69  56  63 S21G26    29.53F
CAPITAL CITY   MOSUNNY   70  55  59 S26G35    29.52F
HARRISBURG     MOSUNNY   68  53  58 S16G30    29.53F
YORK           MOSUNNY   68  54  60 S16G29    29.56F
$$

PAZ038>040-043-044-047-048-054-055-060>062-067>071-241900-
EASTERN PENNSYLVANIA

CITY           SKY/WX    TMP DP  RH WIND       PRES   REMARKS
SCRANTON       MOSUNNY   69  53  56 SW18G30   29.51S
MOUNT POCONO   PTSUNNY   62  54  74 SW22G32   29.58F
ALLENTOWN      MOSUNNY   71  57  61 S22G28    29.57F
QUAKERTOWN*    PTCLDY    68  57  68 S16G23    29.60F
READING        MOSUNNY   71  56  58 S18G28    29.56F
LANCASTER      MOSUNNY   69  54  58 SW18G35   29.57F
COATESVILLE    MOCLDY    66  57  72 S10G23    29.62F
POTTSTOWN      PTSUNNY   68  56  65 SW16G29   29.62F
BLUE BELL      MOSUNNY   72  59  64 SW18G26   29.60F
DOYLESTOWN     MOSUNNY   69  58  67 SW12G20   29.60F
WILLOW GROVE   NOT AVBL
NORTH PHILA    MOSUNNY   72  56  57 SW15G26   29.63F
PHILADELPHIA   PTSUNNY   72  57  59 SW22G32   29.63F
$$


USA.gov is the U.S. government's official web portal to all federal, state and local government web resources and services.